Regional Weather Roundup
Issued by NWS

Home | Current Version | Previous Version | Graphics & Text | Print | Product List | Glossary Off
Versions: 1 2 3 4 5 6 7 8 9 10 11 12 13 14 15 16 17 18 19 20 21 22 23 24 25 26 27 28 29 30 31 32 33 34 35 36 37 38 39 40 41 42 43 44 45 46 47 48 49 50

000
ASUS43 KTOP 222259
RWRKS

WEATHER ROUNDUP FOR KANSAS
NATIONAL WEATHER SERVICE GOODLAND KS
500 PM CST MON JAN 22 2018

NOTE:  "FAIR" INDICATES FEW OR NO CLOUDS BELOW 12,000 FEET WITH NO
SIGNIFICANT WEATHER AND/OR OBSTRUCTIONS TO VISIBILITY.

KSZ001>006-013>018-027>032-041>047-230000-
NORTHWEST KANSAS

CITY           SKY/WX    TMP DP  RH WIND       PRES   REMARKS
GOODLAND       FLURRIES  30  20  66 NW17      29.98R WCI  18
HAYS           CLEAR     37  24  59 NW24G30   29.92R WCI  26
HILL CITY      CLEAR     35  25  66 NW20G35   29.94R WCI  24
RUSSELL        PTCLDY    36  29  75 NW25G33   29.88R WCI  24
$$

KSZ061>065-074>080-084>089-230000-
SOUTHWEST KANSAS

CITY           SKY/WX    TMP DP  RH WIND       PRES   REMARKS
DODGE CITY     CLEAR     44  17  33 NW30G38   29.98R
GARDEN CITY    CLEAR     40  14  34 N26G37    30.00R WCI  29
GREAT BEND     PTCLDY    39  23  52 NW25G37   29.91R WCI  28
LIBERAL        CLEAR     45  11  25 NW21      30.04R
$$

KSZ066>073-081>083-090>101-230000-
SOUTHEAST KANSAS

CITY           SKY/WX    TMP DP  RH WIND       PRES   REMARKS
COFFEYVILLE    LGT RAIN  40  29  64 W30G39    29.78R WCI  28
HUTCHINSON     MOCLDY    39  26  59 NW32G45   29.83R WCI  27
MEDICINE LODGE   N/A     51  18  27 NW22G47   29.91R
NEWTON         CLOUDY    36  28  73 NW24G39   29.79R WCI  24
PARSONS        LGT SNOW  36  32  85 W24G37    29.76R FOG     WCI  24
WICHITA INTL   MOCLDY    42  27  55 NW30G41   29.82R
WICHITA JABRA  CLOUDY    39  28  64 NW36G46   29.79R WCI  26
WICHITA MCCONL CLOUDY    40  26  55 NW24G37   29.80R WCI  30
WINFIELD       MOCLDY    43  25  49 NW35G47   29.85R
$$

KSZ007>012-019>026-033>040-048>060-102>105-230000-
NORTHEAST KANSAS

CITY           SKY/WX    TMP DP  RH WIND       PRES   REMARKS
CONCORDIA      CLOUDY    33  28  81 NW28G43   29.77R WCI  20
EMPORIA        LGT SNOW  32  28  85 NW23G33   29.69R FOG     WCI  19
LAWRENCE       LGT SNOW  32  30  92 W17       29.58R VSB 3/4 WCI  21
MANHATTAN      LGT SNOW  33  27  78 N17G25    29.72R WCI  22
OLATHE IND     FOG       31  30  96 W16       29.57R VSB 1   WCI  20
OLATHE EXE     LGT SNOW  31  30  96 W16G22    29.56R FOG     WCI  20
SALINA         CLOUDY    38  30  73 NW22G40   29.80R WCI  27
TOPEKA BILLARD LGT SNOW  32  30  92 NW21G30   29.61R FOG     WCI  20
TOPEKA FORBES  LGT SNOW  32  29  88 NW26G35   29.60R FOG     WCI  18
$$




USA.gov is the U.S. government's official web portal to all federal, state and local government web resources and services.